Back to catalog

COSMOS 2251 DEB

AliveLEO
NORAD 33915·DEBRIS·🇷🇺 Russia

Launched Jun 16, 1993 from Plesetsk Cosmodrome

Loading…

Next Passes (next 24 hours)

TLE

FreshSource: Space-Track

Epoch: Sep 14, 2026, 10:10 UTC

1 33915U 93036DU  26257.42386120  .00000773  00000-0  25978-3 0  9991
2 33915  74.0400 248.5466 0107587 273.0458 240.4663 14.35715348917137

Track COSMOS 2251 DEB in real time with AllMySat

Download on the App Store